Погода в Кедабеке

Азербайджан     40°34′28″N   45°48′27″E
темп.,
°C
ветер,
м/с
пор.,
м/с
влажн.,
%
обл.,
%
осадки,
мм/ч
давл.,
гПа
погр.,
м
18 октября, пн
пн1801:00+7юз119135 0.6 101370
04:00+7зюз118012 0.7 101315
07:00+6юз217241 0.0 101410
10:00+12с1256100 0.1 1013471
13:00+13с335298 1.8 10121139
16:00+12с235748 6.1 1012822
19:00+7всв118757 3.4 101518
22:00+8вюв118799 5.4 101783
19 октября, вт
вт1901:00+8ююз118199 0.5 101620
04:00+6ююз118858 1.0 101712
07:00+6ююз118628 0.5 101814
10:00+9св217279 1.3 1017433
13:00+10ссв327166 3.9 1016674
16:00+7с339499 6.8 1017360
19:00+6ссв119179 0.9 1018167
22:00+5юв11887 1.1 101812
20 октября, ср
ср2001:00+4сз119019 0.1 101910
04:00+3с119647 0.1 102066
07:00+4ссв018923 0.0 102185
10:00+6ссв217840 0.1 1021461
13:00+8св437229 0.3 1020680
16:00+4св2393100 0.6 1022447
19:00+3всв239497 0.1 1024299
22:00+3св229198 0.1 1026303
21 октября, чт
чт2101:00+2всв229197 0.1 1027370
04:00+1св219698 0.1 1028261
07:00+1с119496 0.1 1029185
10:00+1ссв219098 0.1 1030345
13:00+3св218293 0.0 1028526
16:00+4св217991 0.1 1027586
19:00+3всв118413 0.0 1028152
22:00+1ююв118817 0.0 102953
22 октября, пт
пт2201:00+1ююз11860 0.0 102810
04:00+2ююз21830 0.0 102612
07:00+3ююз22790 0.0 102517
10:00+9ссз11520 0.0 1024321
13:00+13ссв32430 0.0 1022715
16:00+12св31490 0.0 1022503
19:00+7ю11680 0.0 102410
22:00+7ююз11490 0.0 102410